Погода в Теренколе

Казахстан     53°03′52″N   76°06′29″E
темп.,
°C
ветер,
м/с
пор.,
м/с
влажн.,
%
обл.,
%
осадки,
мм/ч
давл.,
гПа
погр.,
м
27 января, ср
ср2700:00−2зюз71294100 0.6 1029571
03:00−2зюз6129493 0.1 1028546
06:00−3зюз7139494 0.3 1028525
09:00−2зюз71394100 0.2 1027608
12:00−3з81291100 0.4 1028603
15:00−3з71191100 0.1 1028765
18:00−4з61292100 0.1 1029450
21:00−4з6119298 0.0 1030384
28 января, чт
чт2800:00−4з599499 0.1 1031356
03:00−7з5994100 0.0 1032220
06:00−10зюз479569 0.0 1033124
09:00−11зюз5109450 0.0 1033163
12:00−8з5109252 0.0 1033322
15:00−6зюз5109280 0.0 1032316
18:00−7зюз5119279 0.0 1032265
21:00−5зюз71388100 0.0 1031296
29 января, пт
пт2900:00−5зюз71488100 0.0 1030307
03:00−5зюз81686100 0.0 1030359
06:00−5зюз81683100 0.0 1029398
09:00−5зюз81683100 0.0 1029377
12:00−5з71484100 0.0 1031395
15:00−4зюз61385100 0.0 1030371
18:00−6зюз51287100 0.0 1031256
21:00−8зюз51089100 0.0 1031176
30 января, сб
сб3000:00−9зюз4788100 0.0 1032108
03:00−10зюз4587100 0.0 103263
06:00−11зюз348487 0.0 103237
09:00−12зюз238399 0.0 103221
12:00−9ююз228651 0.0 103276
15:00−7ю23860 0.0 103177
18:00−9ююв348145 0.0 103028
21:00−9юв4582100 0.0 102973
31 января, вс
вс3100:00−10юв4882100 0.0 1028112
03:00−9юв4785100 0.0 1026121
06:00−10юв4784100 0.0 102498
09:00−9ююв4483100 0.0 102479
12:00−7ююв2485100 0.0 1023115
15:00−6ю238663 0.0 102357
18:00−10з128473 0.0 102321
21:00−12зсз228820 0.0 102321